Location: Harburg
(48.7667°N, 10.6667°E)
Time: 05:25:38
(UTC+00:00)

Cosmos 2266 Rocket - Pass Details

Date: 18 September 2020
Orbit: 934 x 1008 km, 82.9° (Epoch: 27 October)

Event Time Altitude Azimuth Distance (km) Brightness Sun altitude
Rises 20:58:09 0° 350° (N) 3,617 7.8 -32.2°
Reaches altitude 10° 21:00:39 10° 350° (N) 2,663 6.9 -32.4°
Enters shadow 21:05:32 60° 344° (NNW) 1,064 4.3 -32.9°
